Content
SEND FEEDBACK

Daily
Averages
Monthly
Summary
United States of America

ROCKFISH, VIRGINIA


Home > North America > United States > Virginia
Elevation: 49 feet     Latitude: 37 48N     Longitude: 078 45W

WEATHER
 
SELECT A DAY
Number of Records: 209,692;   Date Range: 1/1/95 - 10/20/14
 
SHARE

PRINT THIS DATA

[ ← Previous Day ]
WEATHER ALMANAC - MARCH 20, 2014
[ Next Day → ]
[ °C ]   °F
Weather ElementAverageHighLow
Temperature46.2 °F59.7 °F (3:58 pm)37.4 °F (11:58 pm)
Dewpoint35.8 °F44.1 °F (8:58 am)19 °F (4:58 pm)
Humidity76.4 %100 % (12:08 am)21 % (4:58 pm)
Barometer29.90 in30.04 in (11:58 pm)29.84 in (2:48 am)
Wind Speed6.4 mph18.4 mph (12:58 pm)
Wind Gust28.8 mph (10:58 am)
Weather ElementAverage
Visibility6.3 mi
Wind DirectionSW (223.6 °)

Weather ElementTotal
Precipitation0.04 in
Heating Degree Days16.5 (Base 65)
Averaged from 53 records on March 20, 2014
WEATHER CONDITIONS BREAKOUT
WIND DIRECTION BREAKOUT
WEATHER BY HOUR - MARCH 20, 2014
[ °C ]   °F
Local TimeTemperatureDewpointHumidityBarometerVisibilityWind DirectionWind SpeedGust SpeedPrecipitationEventsConditions
12:08 AM41.0 °F41.0 °F100 %29.89 in3.0 miSSE (160°)1.2 mphOvercast
12:23 AM41.0 °F41.0 °F100 %29.88 in5.0 miSSE (150°)3.5 mphOvercast
12:33 AM41.0 °F41.0 °F100 %29.86 in5.0 miSE (130°)3.5 mphOvercast
12:58 AM41.2 °F41.0 °F99 %29.86 in4.0 miSE (140°)2.3 mphOvercast
1:18 AM41.0 °F41.0 °F100 %29.86 in5.0 miNW (310°)1.2 mphOvercast
1:23 AM41.0 °F41.0 °F100 %29.88 in5.0 miNW (310°)10.4 mphOvercast
1:28 AM41.0 °F41.0 °F100 %29.88 in5.0 miNW (310°)6.9 mphOvercast
1:58 AM41.5 °F41.4 °F99 %29.86 in2.5 miSE (140°)5.8 mphOvercast
2:08 AM41.0 °F41.0 °F100 %29.85 in2.5 miSSE (150°)3.5 mphOvercast
2:18 AM41.0 °F41.0 °F100 %29.85 in3.0 miVariable2.3 mphOvercast
2:23 AM41.0 °F41.0 °F100 %29.85 in4.0 miSE (140°)1.2 mphOvercast
2:48 AM41.0 °F41.0 °F100 %29.84 in5.0 miCalmOvercast
2:58 AM42.1 °F41.7 °F99 %29.84 in5.0 miCalmOvercast
3:58 AM42.8 °F42.4 °F99 %29.84 in7.0 miSSW (210°)3.5 mphOvercast
4:28 AM42.8 °F42.8 °F100 %29.84 in9.0 miVariable2.3 mphOvercast
4:33 AM42.8 °F42.8 °F100 %29.84 in8.0 miWSW (250°)2.3 mphOvercast
4:58 AM43.3 °F43.2 °F99 %29.86 in8.0 miVariable3.5 mphOvercast
5:58 AM43.3 °F43.2 °F99 %29.88 in7.0 miNW (320°)5.8 mphOvercast
6:33 AM42.8 °F42.8 °F100 %29.88 in8.0 miWest (260°)2.3 mphOvercast
6:43 AM42.8 °F42.8 °F100 %29.88 in7.0 miNW (310°)3.5 mphOvercast
6:58 AM42.6 °F42.3 °F99 %29.90 in6.0 miWest (260°)2.3 mphOvercast
7:08 AM42.8 °F42.8 °F100 %29.89 in5.0 miWSW (250°)2.3 mphOvercast
7:43 AM42.8 °F41.0 °F93 %29.90 in2.5 miSW (230°)2.3 mphOvercast
7:48 AM42.8 °F41.0 °F93 %29.90 in2.5 miVariable2.3 mphOvercast
7:53 AM41.0 °F41.0 °F100 %29.90 in1.2 miSW (220°)2.3 mphOvercast
7:58 AM41.0 °F41.0 °F100 %29.91 in0.8 miWSW (240°)1.2 mphOvercast
8:03 AM41.0 °F41.0 °F100 %29.91 in0.8 miSW (230°)2.3 mphMist
8:08 AM42.8 °F41.0 °F93 %29.91 in0.8 miSW (230°)2.3 mphMist
8:13 AM42.8 °F41.0 °F93 %29.91 in1.0 miWSW (250°)3.5 mphMist
8:18 AM41.0 °F41.0 °F100 %29.91 in1.5 miVariable3.5 mphOvercast
8:23 AM42.8 °F41.0 °F93 %29.91 in2.0 miWest (280°)2.3 mphOvercast
8:28 AM42.8 °F41.0 °F93 %29.91 in2.5 miWNW (290°)3.5 mphMostly Cloudy
8:33 AM42.8 °F42.8 °F100 %29.91 in4.0 miWNW (290°)3.5 mphMostly Cloudy
8:43 AM42.8 °F42.8 °F100 %29.91 in6.0 miWest (270°)2.3 mphScattered Clouds
8:58 AM44.2 °F44.1 °F99 %29.92 in9.0 miWNW (300°)3.5 mphPartly Cloudy
9:58 AM50.7 °F39.2 °F65 %29.92 in10.0 miWest (280°)9.2 mphClear
10:58 AM54.1 °F32.2 °F43 %29.93 in10.0 miWNW (300°)15.0 mph28.8 mph0.04 inClear
11:58 AM56.5 °F28.9 °F35 %29.92 in10.0 miWNW (290°)17.3 mph28.8 mphPartly Cloudy
12:16 PM57.2 °F28.4 °F33 %29.91 in10.0 miWNW (300°)16.1 mph23.0 mphClear
12:58 PM57.7 °F28.2 °F32 %29.92 in10.0 miWNW (290°)18.4 mph23.0 mphClear
1:13 PM57.2 °F26.6 °F31 %29.91 in10.0 miWest (270°)13.8 mph24.2 mphClear
1:58 PM58.3 °F25.3 °F28 %29.91 in10.0 miWNW (300°)17.3 mph24.2 mphClear
2:58 PM58.8 °F21.4 °F24 %29.90 in10.0 miWNW (300°)15.0 mph27.6 mphClear
3:56 PM59.0 °F21.2 °F23 %29.88 in10.0 miNW (310°)18.4 mph25.3 mphClear
3:58 PM59.7 °F21.2 °F23 %29.90 in10.0 miNW (310°)16.1 mph25.3 mphClear
4:58 PM59.0 °F19.0 °F21 %29.90 in10.0 miWNW (300°)17.3 mph20.7 mphClear
5:58 PM57.9 °F19.6 °F23 %29.91 in10.0 miNW (310°)10.4 mph21.9 mphClear
6:58 PM55.9 °F19.4 °F24 %29.93 in10.0 miWNW (300°)13.8 mph23.0 mphClear
7:58 PM52.7 °F20.8 °F29 %29.96 in10.0 miNW (310°)12.7 mphClear
8:58 PM50.7 °F20.8 °F31 %30.00 in10.0 miNW (310°)15.0 mph26.5 mphClear
9:58 PM49.8 °F21.7 °F33 %30.02 in10.0 miNW (310°)8.1 mphPartly Cloudy
10:58 PM45.0 °F22.1 °F40 %30.03 in10.0 miNNW (330°)1.2 mphClear
11:58 PM37.4 °F24.4 °F60 %30.04 in10.0 miEast (100°)1.2 mphClear
Hourly data recorded from KDAA, located miles away from Rockfish, Virginia







STORIES FROM OUR PARTNERS